Weather History for Cleveland Cuyahoga, OH

Change the Weather History Date:

Wednesday, January 23, 2013

  Actual Average Record
Temperature  
Mean Temperature 12 °F -  
Max Temperature 15 °F 30 °F 60 °F (1999)
Min Temperature 10 °F 19 °F 1 °F (2011)
Degree Days  
Heating Degree Days 52    
Moisture  
Dew Point 9 °F    
Average Humidity 80    
Maximum Humidity 86    
Minimum Humidity 73    
Precipitation  
Precipitation 0.00 in - - ()
Sea Level Pressure  
Sea Level Pressure 30.16 in    
Wind  
Wind Speed 12 mph (SW)    
Max Wind Speed 18 mph    
Max Gust Speed -    
Visibility 2 miles    
Events Snow    
Averages and records for this station are not official NWS values.
T = Trace of Precipitation, MM = Missing Value Source: NWS Daily Summary

Daily Weather History Graph

Daily Weather History Graph

Search for Another Location

Airport:

Trip Planner

Search our weather history database for the weather conditions in past years. The results will help you decide how hot, cold, wet, or windy it might be!

Date:

Astronomy

Jan. 23, 2013 Rise Set
Actual Time 7:45 AM EST 5:30 PM EST
Civil Twilight 7:15 AM EST 6:00 PM EST
Nautical Twilight 6:41 AM EST 6:34 PM EST
Astronomical Twilight 6:08 AM EST 7:07 PM EST
Moon 2:39 PM EST (1/23) 4:56 AM EST (1/23)
Length of Visible Light 10h 45m
Length of Day
9h 45m
Waxing Gibbous, 89% of the Moon is Illuminated
Jan 23
Waxing Gibbous
Jan 26
Full
Feb 3
Last Quarter
Feb 10
New
Feb 17
First Quarter

Hourly Weather History & Observations

Time (EST) Temp. Windchill Dew Point Humidity Pressure Visibility Wind Dir Wind Speed Gust Speed Precip Events Conditions
6:45 AM 10.4 °F -5.4 °F 6.8 °F 85% 30.23 in 1.5 mi WSW 13.8 mph - N/A Snow Heavy Snow
7:45 AM 10.4 °F -5.4 °F 6.8 °F 85% 30.23 in 0.5 mi WSW 13.8 mph - N/A Snow Heavy Snow
8:45 AM 10.4 °F -5.4 °F 6.8 °F 85% 30.23 in 0.8 mi WSW 13.8 mph - N/A Snow Snow
9:45 AM 12.2 °F -2.5 °F 6.8 °F 79% 30.24 in 2.0 mi WSW 12.7 mph - N/A Snow Light Snow
10:45 AM 12.2 °F -4.3 °F 6.8 °F 79% 30.24 in 2.5 mi WSW 16.1 mph - N/A Snow Light Snow
11:05 AM 12.2 °F -5.3 °F 6.8 °F 79% 30.24 in 0.5 mi WSW 18.4 mph - N/A Snow Snow
11:45 AM 14.0 °F -0.8 °F 8.6 °F 79% 30.23 in 1.5 mi West 13.8 mph - N/A Snow Light Snow
12:45 PM 14.0 °F -0.8 °F 8.6 °F 79% 30.20 in 1.5 mi West 13.8 mph - N/A Snow Light Snow
1:45 PM 15.8 °F 1.4 °F 8.6 °F 73% 30.17 in 1.5 mi West 13.8 mph - N/A Snow Light Snow
2:45 PM 15.8 °F 4.2 °F 8.6 °F 73% 30.16 in 2.0 mi WSW 9.2 mph - N/A Snow Light Snow
3:45 PM 15.8 °F 4.2 °F 10.4 °F 79% 30.14 in 2.0 mi WSW 9.2 mph - N/A Snow Light Snow
4:45 PM 15.8 °F 6.1 °F 10.4 °F 79% 30.13 in 2.0 mi WSW 6.9 mph - N/A Snow Light Snow
5:19 PM 15.8 °F 6.1 °F 10.4 °F 79% 30.11 in 3.0 mi WSW 6.9 mph - N/A Snow Light Snow
5:45 PM 14.0 °F 3.9 °F 8.6 °F 79% 30.11 in 4.0 mi SSW 6.9 mph - N/A Snow Light Snow
6:45 PM 14.0 °F 3.9 °F 8.6 °F 79% 30.11 in 5.0 mi South 6.9 mph - N/A Snow Light Snow
7:45 PM 14.0 °F 5.1 °F 10.4 °F 86% 30.10 in 4.0 mi SSW 5.8 mph - N/A Snow Light Snow
8:45 PM 14.0 °F 3.9 °F 10.4 °F 86% 30.08 in 4.0 mi SSW 6.9 mph - N/A Snow Light Snow
9:45 PM 15.8 °F 6.1 °F 12.2 °F 86% 30.08 in 4.0 mi SW 6.9 mph - N/A Snow Light Snow
10:45 PM 15.8 °F 4.2 °F 10.4 °F 79% 30.07 in 4.0 mi SW 9.2 mph - N/A Snow Light Snow